User: anonymous   Login
Location: Ostrava
(49.8330°N, 18.2830°E)
Time: 05:18:32
(UTC+02:00)
Language:

NOAA 19 - Orbit

View from above orbital plane
View from above orbital plane
View from above satellite
View from above satellite

Ground track
Ground track

The orbit data is extracted from the following two-line orbital elements,

1 33591U 09005A   16272.74987356  .00000135  00000-0  98556-4 0  9998
2 33591  99.0523 230.4313 0013053 289.7551  70.2212 14.12110521393755
Epoch (UTC): 28 September 2016 17:59:49
Eccentricity: 0.0013053
inclination: 99.0523°
perigee height: 843 km
apogee height: 861 km
right ascension of ascending node: 230.4313°
argument of perigee: 289.7551°
revolutions per day: 14.12110521
mean anomaly at epoch: 70.2212°
orbit number at epoch: 39375

The dashed part of the orbit path shows where the satellite is in the earth's shadow,  

DLR